NIMBUS 2 DEB, 39294

Orbit data source: Space-Track

NIMBUS 2 DEB, 39294 is space debris in SSO originally from a launch on Sun, 15 May 1966 UTC launched from the Air Force Western Test Range (AFWTR). Debris objects in space refer to the collection of defunct objects orbiting the Earth. Examples of debris include non-operational satellites, rocket bodies, and fragments generated from explosions, collisions, or faulty payload assembly.

Loading next visibility...
Identifier
39294, 1966-040BC
Orbit
SSO
Country
Flag of USUS
Related business
Manufacturer
Unknown
Mission
Spacecraft
Bus & Motor
Unknown
Mass
Unknown
Launch date (UTC)
1966-05-15 (60 years ago)
Launch vehicle
Unknown
Launch site
Air Force Western Test Range (AFWTR)
Object type
Payload
Rocket body
Debris
Shape & HBR
Unknown shape, 0.1 m
Radar Cross Section
Medium (>0.1 m² and <1 m²)

Expand to show TLE details & history
Last TLE update: 21 hours ago

TLE from 21 hours ago
0 NIMBUS 2 DEB
1 39294U 66040BC  26262.22583189  .00001134  00000-0  19160-2 0  9997
2 39294 100.4402 170.3305 0057210 313.0081  46.6263 13.47469093632352
Epoch: 2026-09-19T05:25Z
TLE epoch observation values (Epoch: 2026-09-19T05:25:11.875Z)
Latitude
-0.00003°
Longitude
90.89361°
Altitude
1,055.157 km
Speed
7.339 km/s
True Right ascension
11h 21m 19s
True Declination
0° 00' 00"
Sunlit
Object was in daylight at epoch
Visualization orbit readout
Latitude
Unknown
Longitude
Unknown
Altitude
Unknown
Speed
Unknown
Apparent Right ascension
Unknown
Apparent Declination
Unknown
Sunlit
N/A
Visualization observer readout
Local Sidereal Time
19:18:47
Azimuth
Unknown
Elevation
Unknown
Doppler factor
Unknown
Orbital elements
Apogee altitude
1,121.591 km
Perigee altitude
1,036.267 km
Semi-major axis
7,457.066 km
Eccentricity
0.00572
Inclination
100.4402°
RAAN
170.3305°
Arg. of periapsis
313.0081°
True anomaly
47.10518°
Mean anomaly
46.6263°
Eccentric anomaly
46.8655°
Mean motion
3.37048 °/min
Orbital period
106.81 mins
BSTAR
0.001916
Loading maneuver chart data...
Computing Atmospheric mass density...
Loading historical data...
Loading historical data...
Loading historical data...
Loading historical data...
Loading historical data...
Loading historical data...
Loading historical data...

Documentation

Showing up to 5 results
|